SONATE
1 44400U 19038Q   25053.48289603  .00078651  00000-0  96240-3 0  9999
2 44400  97.7098  68.9972 0006319 283.9680  76.0873 15.60113525312725
Taurus 1
1 44530U 19059C   25053.81836258  .00013897  00000-0  27072-2 0  9994
2 44530  98.5913 188.4231 0009032   1.7632 358.3598 14.63125028288318
Duchifat 3
1 44854U 19089C   25053.78876784  .00046530  00000-0  13380-2 0  9997
2 44854  36.9487 308.5947 0007720   4.0679 356.0136 15.34805627286463
TO-108
1 44881U 19093C   25053.79115326  .00001876  00000-0  22501-3 0  9991
2 44881  97.8021 131.6620 0013124 217.6587 142.3710 14.85170428280222
FloripaSat 1
1 44885U 19093G   25053.77711020  .00010700  00000-0  94924-3 0  9990
2 44885  97.8197 141.3019 0011069 198.1227 161.9601 14.96326308280767
RS-44
1 44909U 19096E   25053.36871170  .00000019  00000-0  32305-4 0  9996
2 44909  82.5213 298.5320 0217249 186.0027 173.8465 12.79738453240972
UPMSat 2
1 46276U 20061E   25053.45481853  .00054209  00000-0  84671-3 0  9996
2 46276  97.2605 125.3721 0000448 183.8739 176.2511 15.53637201248754
SALSAT
1 46495U 20068K   25053.49104382  .00012032  00000-0  55929-3 0  9991
2 46495  97.8493  26.8370 0012679 163.1172 197.0486 15.20069632242245
CubeSX-Sirius-HSE
1 47951U 21022V   25053.82177330  .00093164  00000-0  14282-2 0  9991
2 47951  97.4328 321.3979 0006139 349.0840  11.0279 15.53980016217077
CubeSX-HSE
1 47952U 21022W   25053.79937049  .00094155  00000-0  14162-2 0  9997
2 47952  97.4324 321.5599 0005629 343.9209  16.1865 15.54503971217089
KSU-Cubesat
1 47954U 21022Y   25053.70329351  .00324646  00000-0  19364-2 0  9991
2 47954  97.4294 325.7765 0002349  60.5632 299.5868 15.77006080217068
GRBAlpha
1 47959U 21022AD  25053.82632914  .00098949  00000-0  14965-2 0  9997
2 47959  97.4312 321.7442 0006033 348.7162  11.3955 15.54332378215911
Orbicraft-Zorkiy
1 47960U 21022AE  25053.83208922  .00182616  00000-0  17398-2 0  9996
2 47960  97.4302 324.9605 0003078   4.7078 355.4210 15.66217386216785
TUBIN
1 48900U 21059X   25053.76709256  .00046275  00000-0  86511-3 0  9993
2 48900  97.6670 215.3086 0005141 272.7784  87.2878 15.48588635203447
LEDSAT
1 49069U 21073D   25053.80561586  .00053797  00000-0  11202-2 0  9994
2 49069  97.4023 132.0713 0012787 109.8604 250.4025 15.45343915194861
CUTE
1 49263U 21088D   25053.46063690  .00019113  00000-0  45222-3 0  9995
2 49263  97.4630 126.9508 0008407 269.2337  90.7946 15.41811382187899
TeikyoSat 4
1 49396U 21102B   25053.53775875  .00004209  00000-0  28580-3 0  9990
2 49396  97.4265  95.7902 0013713 136.3953 223.8361 15.06833109180429
Z-Sat
1 49399U 21102E   25053.79668144  .00008132  00000-0  46355-3 0  9990
2 49399  97.3977  98.5243 0020106 112.9006 247.4350 15.12868625180825
KOSEN 1
1 49402U 21102H   25053.84067136  .00010778  00000-0  53213-3 0  9995
2 49402  97.3888 101.2335 0018236  92.7005 267.6317 15.17908539181080
HO-113
1 50466U 21131B   25053.80742153  .00001288  00000-0  41808-3 0  9997
2 50466  98.5122 143.7085 0005233  98.1648 262.0134 14.40556977166073
IRIS-A
1 51044U 22002BN  25053.62608693  .00092137  00000-0  11602-2 0  9999
2 51044  97.3433 128.8657 0004214 212.8021 147.2974 15.59320515173033
Foresail-1
1 52766U 22057AL  25053.33799591  .00088486  00000-0  11415-2 0  9991
2 52766  97.5983 195.3520 0006794 301.5079  58.5512 15.58674070153025
SNUGLITE 2
1 52899U 22065F   25053.38562407  .00002909  00000-0  58055-3 0  9994
2 52899  98.1488 196.5457 0008569  90.8639 269.3545 14.62665514140811
IO-117
1 53106U 22080B   25051.21822557 -.00000003  00000-0  00000+0 0  9995
2 53106  70.1434 106.3440 0008542  48.0089 312.1297  6.42557744 61200
FO-118
1 54684U 22167C   25053.78424960  .00693684  20100-3  19590-2 0  9998
2 54684  97.6046 218.2515 0009747 298.1519  61.8770 15.93385794123095
SO-120
1 56992U 23084BU  25042.76759540  .17342116  26494-5  33638-3 0  9995
2 56992  97.5047 178.6720 0014759 276.3055  83.6566 16.46134597 93271
UmKA 1 (RS40S)
1 57172U 23091G   25053.83533918  .00010137  00000-0  57173-3 0  9990
2 57172  97.5755 109.8277 0014623 347.6964  12.3908 15.13276695 91324
CubeBel-2 (EU11S)
1 57175U 23091K   25053.84236576  .00015250  00000-0  79240-3 0  9994
2 57175  97.5754 110.4209 0012770 358.0593   2.0588 15.16112291 91362
VERONIKA
1 58261U 23174F   25053.78989484  .00069800  00000-0  14344-2 0  9992
2 58261  97.4267 135.6532 0006656  72.7616 287.4361 15.45724182 72061
KAFASAT
1 58317U 23174BP  25053.57293129  .00238998  00000-0  21822-2 0  9990
2 58317  97.4141 138.9287 0003308 349.9573  10.1621 15.67104572 72282
ENSO
1 58470U 23185J   25053.81858927  .00048235  00000-0  11056-2 0  9993
2 58470  97.3887 126.4946 0008937 107.9856 252.2366 15.42565671 68500
EIRSAT-1
1 58472U 23185L   25053.81692842  .00064514  00000-0  12797-2 0  9998
2 58472  97.3882 127.2184 0007700 108.2289 251.9799 15.46772730 68552
SONATE-2
1 59112U 24043Q   25053.60126059  .00024181  00000-0  82467-3 0  9991
2 59112  97.4969 183.1383 0012336 133.8074 226.4189 15.30277796 53942
MO-122
1 60209U 24125G   25053.50535218  .00024734  00000-0  83243-3 0  9998
2 60209  97.2942 266.6071 0021329 157.5726 202.6453 15.30550786 35549
GRBBeta
1 60237U 24128C   25053.61566593  .00006314  00000-0  49926-3 0  9998
2 60237  61.9922  92.1038 0041664  32.7366 327.6292 15.00963775 34135
Curium One
1 60242U 24128H   25053.46219715  .00011614  00000-0  87203-3 0  9997
2 60242  61.9825  92.2169 0041994  27.3747 332.9544 15.02314949 34121
ROBUSTA-3A
1 60243U 24128J   25053.50208598  .00011619  00000-0  88231-3 0  9997
2 60243  61.9891  92.5808 0040200  25.1652 335.1386 15.01947027 34125
CatSat
1 60246U 24125J   25053.16469793  .00015501  00000-0  56444-3 0  9990
2 60246  97.2725 266.5422 0046815 115.4002 245.2094 15.27238569 33578
HYPERVIEW-1G (RS66S)
1 61772U 24199AP  25053.86636623  .00029045  00000-0  10218-2 0  9997
2 61772  97.3722 283.2731 0014424 209.6935 150.3488 15.29199870 60613
AO-123
1 61781U 24199AY  25053.85569243  .00012793  00000-0  49913-3 0  9996
2 61781  97.3729 282.9949 0015633 211.5046 148.5257 15.25942684 60590
POEM 4 (BGS ARPIT)
1 62461U 24253C   25053.71194731  .00194589  00000-0  78278-3 0  9994
2 62461  55.2197 357.9922 0011555  78.4439 281.7909 15.85333175  8510
